Location: Zagreb
(45.8000°N, 16.0000°E)
Time: 08:53:51
(UTC+02:00)

Courier 1B - Pass Details

Date: 14 August 2020
Orbit: 962 x 1209 km, 28.3° (Epoch: 27 September)

Event Time Altitude Azimuth Distance (km) Brightness Sun altitude
Rises 19:14:40 0° 235° (SW) 4,041 11.4 7.6°
Reaches altitude 10° 19:18:28 10° 218° (SW) 3,041 10.5 7.0°
Maximum altitude 19:23:22 19° 177° (S) 2,387 9.4 6.1°
Drops below altitude 10° 19:28:07 10° 135° (SE) 2,923 9.5 5.3°
Sets 19:31:40 0° 118° (ESE) 3,830 10.0 4.7°
